Weather History for KDPA - February, 2014

Change the Weather History Date:

Thursday, February 13, 2014

  Actual Average Record
Temperature  
Mean Temperature 18 °F 27 °F  
Max Temperature 28 °F 36 °F 45 °F (2001)
Min Temperature 8 °F 19 °F -2 °F (2015)
Degree Days  
Heating Degree Days 47 38  
Month to date heating degree days 745 510  
Since 1 July heating degree days 5103 4225  
Cooling Degree Days 0 0  
Month to date cooling degree days 0 0  
Year to date cooling degree days 0 0  
Moisture  
Dew Point 14 °F    
Average Humidity 72    
Maximum Humidity 86    
Minimum Humidity 58    
Precipitation  
Precipitation T in 0.05 in 0.45 in (2005)
Month to date precipitation 0.16 0.56  
Year to date precipitation 0.97 1.87  
Sea Level Pressure  
Sea Level Pressure 29.71 in    
Wind  
Wind Speed 9 mph (SSW)    
Max Wind Speed 20 mph    
Max Gust Speed 24 mph    
Visibility 7 miles    
Events Snow    
T = Trace of Precipitation, MM = Missing Value Source: NWS Daily Summary

Daily Weather History Graph

Daily Weather History Graph

Search for Another Location

Airport or City:

Trip Planner

Search our weather history database for the weather conditions in past years. The results will help you decide how hot, cold, wet, or windy it might be!

Date:

Astronomy

Feb. 13, 2014 Rise Set
Actual Time 6:51 AM CST 5:23 PM CST
Civil Twilight 6:22 AM CST 5:52 PM CST
Nautical Twilight 5:49 AM CST 6:25 PM CST
Astronomical Twilight 5:17 AM CST 6:57 PM CST
Moon 4:31 PM CST (2/13) 5:44 AM CST (2/13)
Length of Visible Light 11h 29m
Length of Day
10h 32m
Waxing Gibbous, 99% of the Moon is Illuminated
Feb 13
Waxing Gibbous
Feb 14
Full
Feb 22
Last Quarter
Mar 1
New
Mar 8
First Quarter

Hourly Weather History & Observations

Time (CST) Temp. Windchill Dew Point Humidity Pressure Visibility Wind Dir Wind Speed Gust Speed Precip Events Conditions
12:52 AM 19.0 °F 12.3 °F 10.0 °F 68% 30.02 in 9.0 mi South 4.6 mph - N/A   Overcast
1:52 AM 18.0 °F 8.7 °F 10.9 °F 74% 30.00 in 8.0 mi SSE 6.9 mph - N/A   Overcast
2:52 AM 18.0 °F 8.7 °F 10.0 °F 71% 30.00 in 7.0 mi South 6.9 mph - N/A   Overcast
3:52 AM 18.0 °F 6.9 °F 9.0 °F 68% 29.97 in 7.0 mi South 9.2 mph - N/A   Overcast
4:52 AM 12.9 °F 2.6 °F 6.1 °F 74% 29.95 in 7.0 mi SSE 6.9 mph - N/A   Clear
5:52 AM 10.9 °F 4.7 °F 5.0 °F 77% 29.94 in 7.0 mi South 3.5 mph - N/A   Clear
6:52 AM 9.0 °F 0.6 °F 3.9 °F 80% 29.91 in 5.0 mi SSE 4.6 mph - N/A   Haze
7:52 AM 10.9 °F 1.4 °F 5.0 °F 77% 29.88 in 5.0 mi South 5.8 mph - N/A   Haze
8:52 AM 15.1 °F 6.4 °F 8.1 °F 74% 29.85 in 5.0 mi SSE 5.8 mph - N/A   Haze
9:52 AM 19.9 °F 10.1 °F 9.0 °F 62% 29.82 in 7.0 mi South 8.1 mph - N/A   Overcast
10:52 AM 19.9 °F 7.3 °F 10.0 °F 65% 29.79 in 7.0 mi South 12.7 mph - N/A   Overcast
11:52 AM 21.0 °F 9.3 °F 10.0 °F 63% 29.75 in 7.0 mi South 11.5 mph - N/A   Overcast
12:13 PM 21.2 °F 9.5 °F 12.2 °F 68% 29.69 in 1.5 mi South 11.5 mph - 0.00 in Snow Light Snow
12:38 PM 21.2 °F 8.3 °F 15.8 °F 80% 29.65 in 1.5 mi SSE 13.8 mph - 0.00 in Snow Light Snow
12:44 PM 21.2 °F 7.8 °F 17.6 °F 86% 29.65 in 4.0 mi South 15.0 mph - 0.00 in Snow Light Snow
12:52 PM 23.0 °F 9.6 °F 16.0 °F 74% 29.68 in 7.0 mi South 16.1 mph - 0.00 in   Overcast
1:52 PM 27.0 °F 15.6 °F 14.0 °F 58% 29.62 in 9.0 mi South 13.8 mph - N/A   Scattered Clouds
2:52 PM 28.0 °F 17.5 °F 16.0 °F 61% 29.60 in 9.0 mi SSW 12.7 mph - N/A   Clear
3:52 PM 28.0 °F 18.6 °F 18.0 °F 66% 29.59 in 8.0 mi SSW 10.4 mph - N/A   Scattered Clouds
4:03 PM 28.4 °F 17.5 °F 17.6 °F 64% 29.56 in 8.0 mi SSW 13.8 mph - N/A   Mostly Cloudy
4:52 PM 28.9 °F 19.2 °F 19.9 °F 69% 29.59 in 7.0 mi SW 11.5 mph - N/A   Overcast
5:12 PM 28.4 °F 18.5 °F 21.2 °F 74% 29.55 in 7.0 mi SSW 11.5 mph - N/A   Overcast
5:52 PM 28.9 °F 19.8 °F 21.9 °F 75% 29.56 in 8.0 mi South 10.4 mph - N/A   Overcast
6:52 PM 30.0 °F 20.0 °F 24.1 °F 79% 29.55 in 7.0 mi SSW 12.7 mph - N/A   Overcast
7:23 PM 30.2 °F 18.5 °F 24.8 °F 80% 29.51 in 7.0 mi SW 17.3 mph - N/A   Overcast
7:52 PM 28.0 °F 12.8 °F 21.0 °F 75% 29.57 in 7.0 mi West 27.6 mph 34.5 mph 0.00 in   Scattered Clouds
8:24 PM 24.8 °F 10.3 °F 17.6 °F 74% 29.55 in 10.0 mi West 20.7 mph 26.5 mph 0.00 in   Mostly Cloudy
8:52 PM 24.1 °F 8.3 °F 17.1 °F 75% 29.59 in 8.0 mi WNW 24.2 mph 33.4 mph 0.00 in   Overcast
9:40 PM 23.0 °F 8.0 °F 15.8 °F 74% 29.57 in 8.0 mi WNW 20.7 mph 33.4 mph N/A   Overcast
9:52 PM 21.9 °F 5.8 °F 15.1 °F 75% 29.61 in 7.0 mi WNW 23.0 mph 31.1 mph N/A   Overcast
10:52 PM 19.0 °F 4.0 °F 12.9 °F 77% 29.61 in 10.0 mi WNW 17.3 mph 24.2 mph N/A   Partly Cloudy
11:21 PM 19.4 °F 4.1 °F 12.2 °F 74% 29.58 in 9.0 mi WNW 18.4 mph - N/A   Mostly Cloudy
11:52 PM 19.0 °F 4.0 °F 12.9 °F 77% 29.63 in 9.0 mi West 17.3 mph 26.5 mph N/A   Overcast